Aeroporto :
LOGIN :

Iscrizione | Disclaimer

   EN    FR    IT 

 










Sommario :    VFR   VFR Marginale   IFR   IFR Intensivo   IFR Molto Intensivo
Visibilità : 
Base nubi : 
>= 8 km
>= 3000ft
5 / 8 km
1000 / 3000 ft
1500m / 5 km
500 / 1000 ft
800 / 1500m
200 / 500 ft
< 800m
< 200 ft
Simboli :   Temporali  Nebbia  Neve Forte  Precipitazioni Forti  Vento > 20 kt
SIGMETs :   Varie  Temporali  Ghiacco  Turbolenza  Onda orograficha  Ceneri Vulcaniche






- Altitudine del aeroporto : 36 ft
- Codice IATA : LTQ


LFAT - Le Touquet

ULTIMO METAR :
  • 180130Z AUTO 10004KT 060V130 5000 BR NSC 20/19 Q1012

METARs OBSOLETI :
  • 180100Z AUTO 07005KT 040V100 5000 BR NSC 20/20 Q1012
  • 180030Z AUTO 10005KT 6000 NSC 20/20 Q1012
  • 180000Z AUTO 09005KT 7000 NSC 20/20 Q1012
  • 172330Z AUTO VRB02KT 9000 FEW031 BKN120 BKN160 20/20 Q1012
  • 172300Z AUTO 07005KT 9999 FEW030 BKN100 20/19 Q1013
  • 172230Z AUTO 07004KT 7000 -RA FEW038/// OVC100/// ///TCU 20/20 Q1013

Previsioni scadute.
ATIS : +33 3 21 06 62 84



MetMap, La meteo Aeronautica in un colpo d'occhio ! - Copyright ORBIFLY Dicembre 2007 - Disclaimer

ORBIFLY MET'MAP TEAM :

Programmazione e sviluppo : Alexandra Zaïnal
Concezione : Baudouin d'Aumeries
Aiuto per la programmazione : Marc-Olivier Méhu
Supporto tecnico e logistico : Manuel Goepfert
Aiuto per la traduzione : Arnaldo La Scala

Contatto : metmap@orbifly.com




FONTI E CREDITI :

   NOAA